World > North America > United States > Oregon > Walterville

Hourly Walterville, OR Regional Weather

Feedback E-mail the Weather

Quick WX

Walterville, OR Weather Maps

°F °C°F °C
Walterville Weather Map
UTC Time: 8/10/2022, 11:36
Your Time:

Walterville, OR Regional Weather

Expires:202208101200;;788429
ASUS46 KPQR 101110
RWROR 

OREGON REGIONAL WEATHER ROUNDUP
NATIONAL WEATHER SERVICE PORTLAND OR
400 AM PDT WED AUG 10 2022

NOTE: "FAIR" INDICATES FEW OR NO CLOUDS BELOW 12,000 FEET WITH
NO SIGNIFICANT WEATHER AND/OR OBSTRUCTIONS TO VISIBILITY.


ORZ001>013-101200-
NORTHWEST OREGON

  
CITY           SKY/WX    TMP DP  RH WIND       PRES   REMARKS
ASTORIA        CLOUDY    61  57  87 S7        29.98S                  
TILLAMOOK      CLOUDY    59  57  94 CALM      30.02S                  
NEWPORT        CLOUDY    57  55  94 S8G16     30.05S                  
FLORENCE       CLOUDY    61  59  94 CALM      30.03S                  
PORTLAND       CLOUDY    65  56  72 S7G18     29.99R                  
VANCOUVER WA   CLOUDY    65  55  70 S6        29.99R                  
SCAPPOOSE      CLOUDY    64  58  80 NE7       29.97R                  
HILLSBORO      CLOUDY    63  57  81 CALM      29.99R                  
AURORA         CLOUDY    62  56  80 S10       30.00S                  
MCMINNVILLE    CLOUDY    62  56  80 S10       29.99R                  
SALEM          CLOUDY    61  57  87 S9        30.01R                  
CORVALLIS      CLOUDY    60  57  89 S3        30.03S                  
EUGENE         CLOUDY    61  56  83 S5        30.04S                  
CRESWELL       CLOUDY    61  55  82 CALM      30.04S                  
$$


SKY/WX - Weather  TMP - Temperature  DP - Dew Point  RH - Humidity
WIND - Wind Direction/Speed PRES - Barometric Pressure VSB - Visibility
WCI - Wind Chill Index E13G22 Wind - East Wind 13 mph/Gusts of 22 mph

Trending Headlines

Walterville Radar Loop



Walterville Quick Facts


National Two Day Weather Forecast


E-mail the Walterville Weather Forecast

Voice your opinion or tell us about page issues...